| time (UTC) | temp F | wind direction | speed MPH | gust MPH | rain 1hr in | rain 24hr in | rain mn in | humidity % | barometer mb |
| 20260504190552 | 75 | 5 | 0.0 | 4.0 | 0.00 | 0.00 | 0.00 | 43 | 1014.3 |
| 20260504190059 | 75 | 0 | 0.0 | 4.0 | 0.00 | 0.00 | 0.00 | 43 | 1014.4 |
| 20260504185551 | 75 | 317 | 1.0 | 4.0 | 0.00 | 0.00 | 0.00 | 39 | 1014.6 |
| 20260504185051 | 74 | 145 | 0.0 | 4.0 | 0.00 | 0.00 | 0.00 | 42 | 1014.5 |
| 20260504184604 | 74 | 98 | 1.0 | 7.0 | 0.00 | 0.00 | 0.00 | 43 | 1014.8 |
| 20260504184052 | 74 | 305 | 0.0 | 8.0 | 0.00 | 0.00 | 0.00 | 43 | 1014.7 |
| 20260504183552 | 73 | 84 | 3.0 | 8.0 | 0.00 | 0.00 | 0.00 | 41 | 1014.7 |
| 20260504183100 | 73 | 51 | 1.0 | 8.0 | 0.00 | 0.00 | 0.00 | 45 | 1014.9 |
| 20260504182554 | 73 | 106 | 2.0 | 8.0 | 0.00 | 0.00 | 0.00 | 44 | 1015.1 |
| 20260504182051 | 73 | 155 | 2.0 | 8.0 | 0.00 | 0.00 | 0.00 | 44 | 1015.0 |
| 20260504181555 | 73 | 314 | 1.0 | 6.0 | 0.00 | 0.00 | 0.00 | 42 | 1015.2 |
| 20260504181050 | 73 | 79 | 2.0 | 6.0 | 0.00 | 0.00 | 0.00 | 43 | 1015.2 |
| 20260504180553 | 74 | 15 | 2.0 | 5.0 | 0.00 | 0.00 | 0.00 | 43 | 1015.3 |
| 20260504180052 | 73 | 84 | 1.0 | 5.0 | 0.00 | 0.00 | 0.00 | 44 | 1015.4 |
| 20260504175553 | 74 | 150 | 1.0 | 4.0 | 0.00 | 0.00 | 0.00 | 44 | 1015.3 |
| 20260504175053 | 73 | 296 | 0.0 | 2.0 | 0.00 | 0.00 | 0.00 | 45 | 1015.4 |
| 20260504174556 | 73 | 308 | 0.0 | 4.0 | 0.00 | 0.00 | 0.00 | 43 | 1015.4 |
| 20260504174052 | 73 | 261 | 1.0 | 5.0 | 0.00 | 0.00 | 0.00 | 42 | 1015.5 |
| 20260504173549 | 72 | 293 | 1.0 | 5.0 | 0.00 | 0.00 | 0.00 | 43 | 1015.5 |
| 20260504173056 | 73 | 293 | 1.0 | 4.0 | 0.00 | 0.00 | 0.00 | 43 | 1015.7 |
| 20260504172552 | 73 | 292 | 0.0 | 4.0 | 0.00 | 0.00 | 0.00 | 49 | 1015.8 |
| 20260504172049 | 72 | 294 | 1.0 | 4.0 | 0.00 | 0.00 | 0.00 | 46 | 1015.7 |
| 20260504171557 | 72 | 182 | 0.0 | 3.0 | 0.00 | 0.00 | 0.00 | 47 | 1015.9 |
| 20260504171052 | 72 | 331 | 1.0 | 3.0 | 0.00 | 0.00 | 0.00 | 47 | 1015.9 |
| 20260504170552 | 72 | 304 | 0.0 | 3.0 | 0.00 | 0.00 | 0.00 | 48 | 1015.8 |
| 20260504151052 | 64 | 147 | 1.0 | 4.0 | 0.00 | 0.00 | 0.00 | 55 | 1017.5 |
| 20260504150555 | 64 | 184 | 1.0 | 3.0 | 0.00 | 0.00 | 0.00 | 56 | 1017.6 |
| 20260504141049 | 58 | 0 | 0.0 | 1.0 | 0.00 | 0.00 | 0.00 | 75 | 1017.9 |
| 20260504140552 | 57 | 0 | 0.0 | 1.0 | 0.00 | 0.00 | 0.00 | 76 | 1017.9 |
| 20260504130557 | 48 | 0 | 0.0 | 0.0 | 0.00 | 0.00 | 0.00 | 92 | 1017.9 |
| 20260504110552 | 39 | 0 | 0.0 | 0.0 | 0.00 | 0.00 | 0.00 | 91 | 1017.2 |
| 20260504100552 | 40 | 0 | 0.0 | 0.0 | 0.00 | 0.00 | 0.00 | 90 | 1017.2 |
| 20260504081558 | 41 | 0 | 0.0 | 0.0 | 0.00 | 0.00 | 0.00 | 89 | 1016.9 |
| 20260504081052 | 41 | 0 | 0.0 | 1.0 | 0.00 | 0.00 | 0.00 | 89 | 1016.8 |
| 20260504080549 | 41 | 0 | 0.0 | 1.0 | 0.00 | 0.00 | 0.00 | 89 | 1016.9 |
| 20260504070104 | 43 | 0 | 0.0 | 0.0 | 0.00 | 0.00 | 0.00 | 86 | 1017.2 |
| 20260504050551 | 45 | 0 | 0.0 | 0.0 | 0.00 | 0.00 | 0.00 | 81 | 1017.8 |
| 20260504045552 | 45 | 0 | 0.0 | 0.0 | 0.00 | 0.00 | 0.00 | 80 | 1017.5 |
| 20260504045052 | 45 | 0 | 0.0 | 0.0 | 0.00 | 0.00 | 0.00 | 79 | 1017.5 |
| 20260504044554 | 45 | 0 | 0.0 | 0.0 | 0.00 | 0.00 | 0.00 | 79 | 1017.4 |
| 20260504044052 | 45 | 0 | 0.0 | 0.0 | 0.00 | 0.00 | 0.00 | 79 | 1017.5 |
| 20260504043553 | 45 | 0 | 0.0 | 0.0 | 0.00 | 0.00 | 0.00 | 79 | 1017.5 |
| 20260504043054 | 46 | 0 | 0.0 | 0.0 | 0.00 | 0.00 | 0.00 | 79 | 1017.4 |
| 20260504042554 | 46 | 0 | 0.0 | 0.0 | 0.00 | 0.00 | 0.00 | 79 | 1017.4 |
| 20260504042052 | 46 | 0 | 0.0 | 0.0 | 0.00 | 0.00 | 0.00 | 79 | 1017.3 |
| 20260504041553 | 46 | 0 | 0.0 | 0.0 | 0.00 | 0.00 | 0.00 | 79 | 1017.4 |
| 20260504041055 | 46 | 0 | 0.0 | 0.0 | 0.00 | 0.00 | 0.00 | 77 | 1017.4 |
| 20260504040557 | 46 | 0 | 0.0 | 0.0 | 0.00 | 0.00 | 0.00 | 77 | 1017.5 |
| 20260504040059 | 46 | 0 | 0.0 | 0.0 | 0.00 | 0.00 | 0.00 | 77 | 1017.4 |
| 20260504035554 | 47 | 0 | 0.0 | 0.0 | 0.00 | 0.00 | 0.00 | 76 | 1017.0 |
| 20260504035054 | 47 | 0 | 0.0 | 0.0 | 0.00 | 0.00 | 0.00 | 76 | 1017.2 |
| 20260504034614 | 47 | 0 | 0.0 | 0.0 | 0.00 | 0.00 | 0.00 | 75 | 1017.3 |
| 20260504034054 | 47 | 0 | 0.0 | 0.0 | 0.00 | 0.00 | 0.00 | 75 | 1017.1 |
| 20260504033554 | 48 | 0 | 0.0 | 0.0 | 0.00 | 0.00 | 0.00 | 75 | 1017.1 |
| 20260504033104 | 48 | 0 | 0.0 | 0.0 | 0.00 | 0.00 | 0.00 | 75 | 1017.1 |
| 20260504032554 | 48 | 0 | 0.0 | 0.0 | 0.00 | 0.00 | 0.00 | 72 | 1016.9 |
| 20260504032054 | 48 | 0 | 0.0 | 0.0 | 0.00 | 0.00 | 0.00 | 71 | 1016.8 |
| 20260504031600 | 48 | 0 | 0.0 | 0.0 | 0.00 | 0.00 | 0.00 | 71 | 1016.9 |
| 20260504031055 | 49 | 0 | 0.0 | 0.0 | 0.00 | 0.00 | 0.00 | 72 | 1017.1 |
| 20260504030554 | 49 | 0 | 0.0 | 0.0 | 0.00 | 0.00 | 0.00 | 73 | 1017.1 |
| 20260504030059 | 49 | 0 | 0.0 | 0.0 | 0.00 | 0.00 | 0.00 | 72 | 1017.1 |
| 20260504025554 | 49 | 0 | 0.0 | 0.0 | 0.00 | 0.00 | 0.00 | 73 | 1017.2 |
| 20260504025054 | 50 | 0 | 0.0 | 0.0 | 0.00 | 0.00 | 0.00 | 72 | 1017.1 |
| 20260504024604 | 50 | 0 | 0.0 | 0.0 | 0.00 | 0.00 | 0.00 | 69 | 1017.1 |
| 20260504024055 | 50 | 0 | 0.0 | 0.0 | 0.00 | 0.00 | 0.00 | 69 | 1017.1 |
| 20260504023555 | 50 | 0 | 0.0 | 0.0 | 0.00 | 0.00 | 0.00 | 69 | 1017.1 |
| 20260504023059 | 50 | 0 | 0.0 | 0.0 | 0.00 | 0.00 | 0.00 | 70 | 1017.1 |
| 20260504022555 | 50 | 0 | 0.0 | 0.0 | 0.00 | 0.00 | 0.00 | 69 | 1017.1 |
| 20260504022054 | 51 | 0 | 0.0 | 0.0 | 0.00 | 0.00 | 0.00 | 69 | 1017.0 |
| 20260504021601 | 51 | 0 | 0.0 | 0.0 | 0.00 | 0.00 | 0.00 | 68 | 1017.1 |
| 20260504021056 | 52 | 0 | 0.0 | 0.0 | 0.00 | 0.00 | 0.00 | 67 | 1017.2 |
| 20260504020553 | 52 | 0 | 0.0 | 0.0 | 0.00 | 0.00 | 0.00 | 67 | 1017.1 |
| 20260504020059 | 52 | 0 | 0.0 | 0.0 | 0.00 | 0.00 | 0.00 | 66 | 1017.1 |
| 20260504015551 | 52 | 0 | 0.0 | 0.0 | 0.00 | 0.00 | 0.00 | 62 | 1016.7 |
| 20260504015051 | 53 | 0 | 0.0 | 0.0 | 0.00 | 0.00 | 0.00 | 60 | 1016.8 |
| 20260504014619 | 53 | 0 | 0.0 | 0.0 | 0.00 | 0.00 | 0.00 | 60 | 1016.7 |
| 20260504014054 | 53 | 0 | 0.0 | 0.0 | 0.00 | 0.00 | 0.00 | 61 | 1016.6 |
| 20260504013557 | 53 | 0 | 0.0 | 0.0 | 0.00 | 0.00 | 0.00 | 61 | 1016.7 |
| 20260504013104 | 53 | 0 | 0.0 | 0.0 | 0.00 | 0.00 | 0.00 | 61 | 1016.7 |
| 20260504012554 | 53 | 0 | 0.0 | 0.0 | 0.00 | 0.00 | 0.00 | 61 | 1016.8 |
| 20260504012054 | 54 | 0 | 0.0 | 0.0 | 0.00 | 0.00 | 0.00 | 61 | 1016.6 |
| 20260504011602 | 54 | 0 | 0.0 | 0.0 | 0.00 | 0.00 | 0.00 | 62 | 1016.6 |
| 20260504011050 | 54 | 0 | 0.0 | 0.0 | 0.00 | 0.00 | 0.00 | 60 | 1016.6 |
| 20260504010550 | 54 | 0 | 0.0 | 0.0 | 0.00 | 0.00 | 0.00 | 60 | 1016.5 |
| 20260504010101 | 55 | 0 | 0.0 | 0.0 | 0.00 | 0.00 | 0.00 | 58 | 1016.7 |
| 20260504005551 | 55 | 0 | 0.0 | 0.0 | 0.00 | 0.00 | 0.00 | 57 | 1016.5 |
| 20260504005051 | 55 | 0 | 0.0 | 0.0 | 0.00 | 0.00 | 0.00 | 55 | 1016.4 |
| 20260504004555 | 55 | 0 | 0.0 | 0.0 | 0.00 | 0.00 | 0.00 | 55 | 1016.4 |
| 20260504004050 | 56 | 0 | 0.0 | 0.0 | 0.00 | 0.00 | 0.00 | 54 | 1016.4 |
| 20260504003550 | 56 | 0 | 0.0 | 0.0 | 0.00 | 0.00 | 0.00 | 54 | 1016.3 |
| 20260504003059 | 57 | 0 | 0.0 | 0.0 | 0.00 | 0.00 | 0.00 | 53 | 1016.3 |
| 20260504002555 | 57 | 0 | 0.0 | 0.0 | 0.00 | 0.00 | 0.00 | 52 | 1016.1 |
| 20260504002050 | 58 | 0 | 0.0 | 0.0 | 0.00 | 0.00 | 0.00 | 53 | 1016.2 |
| 20260504001558 | 58 | 0 | 0.0 | 0.0 | 0.00 | 0.00 | 0.00 | 54 | 1016.2 |
| 20260504001054 | 58 | 0 | 0.0 | 0.0 | 0.00 | 0.00 | 0.00 | 53 | 1016.2 |
| 20260504000553 | 59 | 0 | 0.0 | 0.0 | 0.00 | 0.00 | 0.00 | 51 | 1016.2 |
| 20260504000056 | 59 | 0 | 0.0 | 1.0 | 0.00 | 0.00 | 0.00 | 50 | 1016.1 |
| 20260503235554 | 60 | 0 | 0.0 | 1.0 | 0.00 | 0.00 | 0.00 | 49 | 1016.2 |
| 20260503235057 | 60 | 0 | 0.0 | 1.0 | 0.00 | 0.00 | 0.00 | 49 | 1016.2 |
| 20260503234554 | 60 | 326 | 0.0 | 1.0 | 0.00 | 0.00 | 0.00 | 49 | 1016.1 |
| 20260503234051 | 61 | 0 | 0.0 | 1.0 | 0.00 | 0.00 | 0.00 | 48 | 1016.2 |
| 20260503233551 | 61 | 0 | 0.0 | 1.0 | 0.00 | 0.00 | 0.00 | 49 | 1016.1 |
| 20260503233055 | 61 | 0 | 0.0 | 1.0 | 0.00 | 0.00 | 0.00 | 47 | 1016.1 |
| 20260503232551 | 62 | 0 | 0.0 | 2.0 | 0.00 | 0.00 | 0.00 | 48 | 1016.1 |
| 20260503232054 | 62 | 0 | 0.0 | 2.0 | 0.00 | 0.00 | 0.00 | 47 | 1016.2 |
| 20260503231555 | 62 | 0 | 0.0 | 2.0 | 0.00 | 0.00 | 0.00 | 44 | 1016.0 |
| 20260503231052 | 62 | 0 | 0.0 | 2.0 | 0.00 | 0.00 | 0.00 | 42 | 1016.0 |
| 20260503230551 | 62 | 332 | 0.0 | 2.0 | 0.00 | 0.00 | 0.00 | 42 | 1016.2 |
| 20260503230058 | 63 | 309 | 0.0 | 2.0 | 0.00 | 0.00 | 0.00 | 41 | 1016.2 |
| 20260503225554 | 63 | 305 | 0.0 | 2.0 | 0.00 | 0.00 | 0.00 | 43 | 1016.0 |
| 20260503225054 | 63 | 0 | 0.0 | 2.0 | 0.00 | 0.00 | 0.00 | 38 | 1016.1 |
| 20260503224554 | 63 | 0 | 0.0 | 2.0 | 0.00 | 0.00 | 0.00 | 39 | 1016.1 |
| 20260503224054 | 63 | 0 | 0.0 | 2.0 | 0.00 | 0.00 | 0.00 | 42 | 1016.2 |
| 20260503223554 | 63 | 0 | 0.0 | 3.0 | 0.00 | 0.00 | 0.00 | 40 | 1016.0 |
| 20260503223053 | 64 | 0 | 0.0 | 3.0 | 0.00 | 0.00 | 0.00 | 37 | 1016.2 |
| 20260503222553 | 64 | 315 | 0.0 | 3.0 | 0.00 | 0.00 | 0.00 | 40 | 1016.1 |
| 20260503222053 | 64 | 0 | 0.0 | 3.0 | 0.00 | 0.00 | 0.00 | 36 | 1016.1 |
| 20260503221558 | 64 | 277 | 1.0 | 3.0 | 0.00 | 0.00 | 0.00 | 35 | 1016.1 |
| 20260503221054 | 64 | 306 | 1.0 | 3.0 | 0.00 | 0.00 | 0.00 | 37 | 1016.3 |
| 20260503220554 | 64 | 306 | 1.0 | 3.0 | 0.00 | 0.00 | 0.00 | 36 | 1016.2 |
| 20260503220057 | 64 | 313 | 0.0 | 3.0 | 0.00 | 0.00 | 0.00 | 35 | 1016.2 |
| 20260503215553 | 64 | 0 | 1.0 | 3.0 | 0.00 | 0.00 | 0.00 | 34 | 1016.2 |
| 20260503215054 | 64 | 306 | 1.0 | 3.0 | 0.00 | 0.00 | 0.00 | 36 | 1016.2 |
| 20260503214557 | 64 | 0 | 1.0 | 3.0 | 0.00 | 0.00 | 0.00 | 36 | 1016.3 |
| 20260503214054 | 65 | 0 | 1.0 | 3.0 | 0.00 | 0.00 | 0.00 | 37 | 1016.2 |
| 20260503213554 | 65 | 280 | 1.0 | 3.0 | 0.00 | 0.00 | 0.00 | 37 | 1016.3 |
| 20260503213111 | 65 | 323 | 1.0 | 3.0 | 0.00 | 0.00 | 0.00 | 38 | 1016.4 |
| 20260503212558 | 65 | 290 | 0.0 | 3.0 | 0.00 | 0.00 | 0.00 | 38 | 1016.2 |
| 20260503212053 | 65 | 352 | 0.0 | 3.0 | 0.00 | 0.00 | 0.00 | 35 | 1016.4 |
| 20260503211555 | 65 | 137 | 0.0 | 3.0 | 0.00 | 0.00 | 0.00 | 37 | 1016.4 |
| 20260503211053 | 65 | 47 | 1.0 | 3.0 | 0.00 | 0.00 | 0.00 | 35 | 1016.4 |
| 20260503210554 | 65 | 0 | 0.0 | 3.0 | 0.00 | 0.00 | 0.00 | 34 | 1016.5 |
| 20260503205555 | 66 | 0 | 1.0 | 4.0 | 0.00 | 0.00 | 0.00 | 34 | 1016.6 |
| 20260503205056 | 66 | 294 | 1.0 | 4.0 | 0.00 | 0.00 | 0.00 | 35 | 1016.6 |
| 20260503204554 | 66 | 309 | 1.0 | 4.0 | 0.00 | 0.00 | 0.00 | 35 | 1016.5 |
| 20260503204058 | 67 | 169 | 2.0 | 4.0 | 0.00 | 0.00 | 0.00 | 34 | 1016.6 |
| 20260503203554 | 67 | 299 | 0.0 | 4.0 | 0.00 | 0.00 | 0.00 | 34 | 1016.6 |
| 20260503203102 | 67 | 239 | 0.0 | 3.0 | 0.00 | 0.00 | 0.00 | 34 | 1016.7 |
| 20260503202554 | 67 | 259 | 1.0 | 4.0 | 0.00 | 0.00 | 0.00 | 34 | 1016.8 |
| 20260503202054 | 67 | 360 | 1.0 | 4.0 | 0.00 | 0.00 | 0.00 | 35 | 1017.0 |
| 20260503201556 | 67 | 236 | 0.0 | 3.0 | 0.00 | 0.00 | 0.00 | 36 | 1017.2 |
| 20260503201054 | 67 | 352 | 0.0 | 3.0 | 0.00 | 0.00 | 0.00 | 36 | 1017.2 |
| 20260503200557 | 66 | 0 | 1.0 | 3.0 | 0.00 | 0.00 | 0.00 | 37 | 1017.1 |
| 20260503195555 | 67 | 225 | 2.0 | 4.0 | 0.00 | 0.00 | 0.00 | 35 | 1017.2 |
| 20260503195054 | 67 | 284 | 1.0 | 3.0 | 0.00 | 0.00 | 0.00 | 35 | 1017.4 |
| 20260503194600 | 67 | 323 | 1.0 | 3.0 | 0.00 | 0.00 | 0.00 | 37 | 1017.5 |
| 20260503194058 | 67 | 339 | 1.0 | 3.0 | 0.00 | 0.00 | 0.00 | 35 | 1017.5 |
| 20260503193555 | 66 | 38 | 0.0 | 4.0 | 0.00 | 0.00 | 0.00 | 39 | 1017.4 |
| 20260503193101 | 66 | 0 | 1.0 | 4.0 | 0.00 | 0.00 | 0.00 | 35 | 1017.7 |
| 20260503192554 | 66 | 0 | 1.0 | 4.0 | 0.00 | 0.00 | 0.00 | 35 | 1017.8 |
| 20260503192051 | 65 | 304 | 1.0 | 4.0 | 0.00 | 0.00 | 0.00 | 33 | 1017.9 |
| 20260503191602 | 65 | 275 | 1.0 | 3.0 | 0.00 | 0.00 | 0.00 | 36 | 1017.9 |
| 20260503191054 | 65 | 0 | 1.0 | 4.0 | 0.00 | 0.00 | 0.00 | 35 | 1018.0 |